Kodiak, AK

10:25 AM AKDT on October 22, 2017 (GMT -0800)
Kodiak

Weather History for PADQ - December, 2012

Change the Weather History Date:

Tuesday, December 18, 2012

  Actual Average Record
Temperature  
Mean Temperature 27 °F 31 °F  
Max Temperature 34 °F 36 °F 44 °F (1978)
Min Temperature 19 °F 26 °F 5 °F (1919)
Degree Days  
Heating Degree Days 38 34  
Month to date heating degree days 648 607  
Since 1 July heating degree days 3573 3402  
Cooling Degree Days 0 0  
Month to date cooling degree days 0 0  
Year to date cooling degree days 0 1  
Moisture  
Dew Point 29 °F    
Average Humidity 0    
Maximum Humidity 0    
Minimum Humidity 0    
Precipitation  
Precipitation 0.36 in 0.29 in 1.90 in (1920)
Month to date precipitation 1.74 5.14  
Year to date precipitation 54.04 74.41  
Snow  
Snow 4.10 in 0.40 in 11.90 in (1975)
Month to date snowfall 6.9 8.5  
Since 1 July snowfall 14.8 16.0  
Snow Depth 4.00 in    
Sea Level Pressure  
Sea Level Pressure 29.18 in    
Wind  
Wind Speed 25 mph (NE)    
Max Wind Speed 44 mph    
Max Gust Speed 51 mph    
Visibility 2 miles    
Events Snow    
T = Trace of Precipitation, MM = Missing Value Source: NWS Daily Summary

Daily Weather History Graph

Daily Weather History Graph

Search for Another Location

Airport or City:

Trip Planner

Search our weather history database for the weather conditions in past years. The results will help you decide how hot, cold, wet, or windy it might be!

Date:

Astronomy

Dec. 18, 2012 Rise Set
Actual Time 9:51 AM AKST 4:22 PM AKST
Civil Twilight 8:59 AM AKST 5:14 PM AKST
Nautical Twilight 8:07 AM AKST 6:06 PM AKST
Astronomical Twilight 7:19 AM AKST 6:54 PM AKST
Moon 12:20 PM AKST (12/18) No Moon Set
Length of Visible Light 8h 14m
Length of Day
6h 31m
Waxing Crescent, 36% of the Moon is Illuminated
Dec 18
Waxing Crescent
Dec 19
First Quarter
Dec 28
Full
Jan 4
Last Quarter
Jan 11
New

Hourly Weather History & Observations

Time (AKST) Temp. Windchill Dew Point Humidity Pressure Visibility Wind Dir Wind Speed Gust Speed Precip Events Conditions
12:07 AM 33.8 °F 20.8 °F 28.4 °F 81% 29.21 in 1.8 mi ESE 26.5 mph 44.9 mph 0.00 in Snow Light Snow
12:14 AM 33.8 °F 20.1 °F 28.4 °F 81% 29.21 in 2.0 mi ESE 29.9 mph 46.0 mph 0.00 in Snow Light Snow
12:25 AM 33.8 °F 19.9 °F 30.2 °F 87% 29.20 in 1.2 mi ESE 31.1 mph 43.7 mph 0.00 in Snow Light Snow
12:42 AM 33.8 °F 20.8 °F 30.2 °F 87% 29.19 in 1.5 mi ESE 26.5 mph 34.5 mph 0.01 in Snow Light Snow
12:53 AM 33.1 °F 18.0 °F 30.9 °F 92% 29.19 in 1.2 mi ESE 35.7 mph 42.6 mph 0.01 in Snow Light Snow
1:10 AM 33.8 °F 21.0 °F 32.0 °F 93% 29.17 in 1.0 mi ESE 25.3 mph 36.8 mph 0.00 in Snow Light Snow
1:22 AM 33.8 °F 19.6 °F 30.2 °F 87% 29.16 in 0.8 mi ESE 32.2 mph 42.6 mph 0.02 in Snow Light Snow
1:45 AM 33.8 °F 19.6 °F 32.0 °F 93% 29.14 in 1.0 mi ESE 32.2 mph 41.4 mph 0.02 in Snow Light Snow
1:53 AM 33.1 °F 17.6 °F 32.0 °F 96% 29.14 in 1.0 mi East 38.0 mph 43.7 mph 0.03 in Snow Light Snow
2:08 AM 33.8 °F 18.6 °F 32.0 °F 93% 29.13 in 1.5 mi ESE 38.0 mph 44.9 mph 0.02 in Snow Light Snow
2:15 AM 33.8 °F 19.2 °F 32.0 °F 93% 29.12 in 1.0 mi ESE 34.5 mph 44.9 mph 0.02 in Snow Light Snow
2:30 AM 33.8 °F 19.2 °F 32.0 °F 93% 29.11 in 1.2 mi East 34.5 mph 44.9 mph 0.03 in Snow Light Snow
2:38 AM 33.8 °F 19.2 °F 32.0 °F 93% 29.11 in 1.0 mi East 34.5 mph 49.5 mph 0.03 in Snow Light Snow
2:53 AM 33.1 °F 18.2 °F 32.0 °F 96% 29.11 in 1.0 mi East 34.5 mph 44.9 mph 0.04 in Snow Light Snow
3:27 AM 33.8 °F 19.4 °F 32.0 °F 93% 29.10 in 0.8 mi East 33.4 mph 50.6 mph 0.03 in Snow Light Snow
3:35 AM 33.8 °F 18.6 °F 32.0 °F 93% 29.10 in 1.0 mi East 38.0 mph 49.5 mph 0.03 in Snow Light Snow
3:53 AM 33.1 °F 18.0 °F 32.0 °F 96% 29.10 in 1.5 mi East 35.7 mph 44.9 mph 0.05 in Snow Light Snow
4:00 AM 33.8 °F 18.5 °F 32.0 °F 93% 29.09 in 1.8 mi East 39.1 mph 49.5 mph 0.00 in Snow Light Snow
4:22 AM 33.8 °F 20.1 °F 32.0 °F 93% 29.10 in 2.0 mi East 29.9 mph 39.1 mph 0.01 in Snow Light Snow
4:38 AM 33.8 °F 18.5 °F 30.2 °F 87% 29.10 in 3.0 mi East 39.1 mph 47.2 mph 0.02 in Snow Light Snow
4:50 AM 33.8 °F 19.6 °F 32.0 °F 93% 29.10 in 3.0 mi East 32.2 mph 44.9 mph 0.02 in Snow Light Snow
4:53 AM 34.0 °F 19.9 °F 32.0 °F 92% 29.11 in 2.5 mi East 32.2 mph 40.3 mph 0.02 in Snow Light Snow
5:01 AM 33.8 °F 19.2 °F 32.0 °F 93% 29.10 in 3.0 mi East 34.5 mph 44.9 mph 0.00 in Snow Light Snow
5:08 AM 33.8 °F 19.6 °F 32.0 °F 93% 29.10 in 4.0 mi East 32.2 mph 44.9 mph 0.00 in Snow Light Snow
5:24 AM 33.8 °F 21.0 °F 33.8 °F 100% 29.09 in 1.5 mi East 25.3 mph 43.7 mph 0.01 in Snow Light Snow
5:33 AM 33.8 °F 19.9 °F 33.8 °F 100% 29.09 in 2.0 mi East 31.1 mph 38.0 mph 0.01 in Snow Light Snow
5:40 AM 33.8 °F 19.2 °F 33.8 °F 100% 29.09 in 1.2 mi East 34.5 mph 39.1 mph 0.02 in Snow Light Snow
5:48 AM 33.8 °F 21.3 °F 32.0 °F 93% 29.10 in 2.0 mi East 24.2 mph 39.1 mph 0.02 in Snow Light Snow
5:53 AM 34.0 °F 19.1 °F 32.0 °F 92% 29.11 in 2.0 mi East 36.8 mph 43.7 mph 0.02 in Snow Light Snow
6:04 AM 33.8 °F 20.3 °F 33.8 °F 100% 29.10 in 1.8 mi East 28.8 mph 39.1 mph 0.00 in Snow Light Snow
6:46 AM 33.8 °F 20.1 °F 32.0 °F 93% 29.10 in 2.0 mi ENE 29.9 mph 38.0 mph 0.02 in Snow Light Snow
6:51 AM 33.8 °F 20.3 °F 32.0 °F 93% 29.10 in 2.5 mi ENE 28.8 mph 36.8 mph 0.02 in Snow Light Snow
6:53 AM 33.1 °F 18.9 °F 32.0 °F 96% 29.11 in 2.5 mi ENE 31.1 mph 36.8 mph 0.02 in Snow Light Snow
7:03 AM 33.8 °F 21.9 °F 32.0 °F 93% 29.10 in 3.0 mi ENE 21.9 mph 35.7 mph 0.00 in Snow Light Snow
7:13 AM 33.8 °F 21.0 °F 32.0 °F 93% 29.10 in 2.0 mi ENE 25.3 mph 36.8 mph 0.00 in Snow Light Snow
7:20 AM 33.8 °F 20.8 °F 32.0 °F 93% 29.10 in 1.8 mi ENE 26.5 mph 33.4 mph 0.01 in Snow Light Snow
7:53 AM 34.0 °F 21.3 °F 33.1 °F 96% 29.12 in 1.8 mi ENE 25.3 mph 31.1 mph 0.01 in Snow Light Snow
8:53 AM 33.1 °F 21.2 °F 32.0 °F 96% 29.13 in 1.0 mi NE 20.7 mph - 0.02 in Snow Light Snow
9:02 AM 33.8 °F 21.6 °F 30.2 °F 87% 29.13 in 3.0 mi NNE 23.0 mph - 0.01 in Snow Light Snow
9:53 AM 34.0 °F 21.0 °F 30.0 °F 85% 29.15 in 3.0 mi NNE 26.5 mph 36.8 mph 0.01 in Snow Light Snow
10:53 AM 34.0 °F 20.5 °F 26.1 °F 73% 29.18 in 6.0 mi NNE 28.8 mph 38.0 mph 0.00 in Snow Light Snow
11:40 AM 33.8 °F 22.2 °F 28.4 °F 81% 29.20 in 2.0 mi North 20.7 mph 36.8 mph 0.00 in Snow Light Snow
11:53 AM 33.1 °F 21.9 °F 28.9 °F 85% 29.21 in 2.0 mi NNE 18.4 mph 35.7 mph 0.00 in Snow Light Snow
12:53 PM 33.1 °F 24.9 °F 27.0 °F 78% 29.22 in 3.0 mi North 10.4 mph 18.4 mph 0.00 in Snow Light Snow
1:53 PM 33.1 °F 23.0 °F 28.0 °F 82% 29.24 in 3.0 mi North 15.0 mph 24.2 mph 0.00 in Snow Light Snow
2:42 PM 30.2 °F 22.6 °F 28.4 °F 93% 29.24 in 1.0 mi NNW 8.1 mph - 0.02 in Snow Light Snow
2:53 PM 32.0 °F 25.6 °F 28.9 °F 88% 29.25 in 1.0 mi NNW 6.9 mph - 0.03 in Snow Light Snow
3:53 PM 30.9 °F 20.2 °F 28.0 °F 89% 29.26 in 0.8 mi WNW 15.0 mph - 0.02 in Snow Light Snow
4:53 PM 28.9 °F 16.9 °F 27.0 °F 92% 29.28 in 0.8 mi WNW 17.3 mph 25.3 mph 0.01 in Snow Light Snow
4:55 PM 28.4 °F 17.0 °F 26.6 °F 93% 29.28 in 1.2 mi WNW 15.0 mph 23.0 mph 0.00 in Snow Light Snow
5:05 PM 28.4 °F 15.4 °F 26.6 °F 93% 29.28 in 0.8 mi WNW 19.6 mph 26.5 mph 0.00 in Snow Light Snow
5:11 PM 28.4 °F 14.4 °F 26.6 °F 93% 29.28 in 0.5 mi WNW 23.0 mph 29.9 mph 0.00 in Snow Snow
5:53 PM 26.1 °F 11.6 °F 24.1 °F 92% 29.31 in 0.5 mi WNW 21.9 mph 31.1 mph 0.01 in Snow Snow
6:01 PM 26.6 °F 12.7 °F 23.0 °F 86% 29.31 in 0.8 mi WNW 20.7 mph 34.5 mph 0.00 in Snow Light Snow
6:53 PM 26.1 °F 11.6 °F 21.0 °F 81% 29.34 in 0.5 mi WNW 21.9 mph 28.8 mph 0.01 in Snow Snow
7:53 PM 24.1 °F 9.4 °F 19.9 °F 84% 29.35 in 0.5 mi WNW 20.7 mph 31.1 mph 0.00 in Snow Snow
8:53 PM 21.9 °F 4.5 °F 17.1 °F 82% 29.35 in 0.5 mi WNW 27.6 mph 36.8 mph 0.00 in Snow Snow
9:27 PM 21.2 °F 3.9 °F 15.8 °F 80% 29.34 in 2.0 mi WNW 26.5 mph 39.1 mph 0.00 in Snow Light Snow
9:53 PM 21.0 °F 3.0 °F 15.1 °F 78% 29.36 in 4.0 mi WNW 28.8 mph 40.3 mph 0.00 in Snow Light Snow
10:18 PM 19.4 °F -0.0 °F 15.8 °F 86% 29.37 in 4.0 mi WNW 32.2 mph 41.4 mph 0.00 in Snow Blowing Snow
10:53 PM 19.9 °F 2.2 °F 14.0 °F 78% 29.39 in 4.0 mi WNW 26.5 mph 36.8 mph 0.00 in Snow Blowing Snow
11:53 PM 19.0 °F 0.3 °F 12.9 °F 77% 29.41 in 6.0 mi WNW 28.8 mph 39.1 mph N/A Snow Blowing Snow